#timestamp,LO_Frequency,Hit 
1501016415.3,286046995.9,N
1501016435.1,286046996.6,N
1501016455.9,286046997.0,N
1501016475.7,286046997.2,N
1501016495.5,286046996.5,N
1501016515.4,286046999.3,N
1501016535.2,286046995.1,N
1501016555.0,286046998.7,N
1501016555.9,286046998.7,N
1501016575.8,286046996.5,N
1501016595.6,286046999.5,N
1501016615.4,286047000.5,N
1501016635.3,286046999.4,N
1501016655.1,286046997.1,N
1501016656.0,286046997.1,N
1501016675.8,286046997.4,N
1501016695.7,286046995.5,N
1501016715.5,286046993.3,N
1501016735.3,286046996.3,N
1501016755.1,286046991.8,N
1501016775.9,286046992.1,N
1501016795.7,286046991.9,N
1501016815.5,286046991.7,N
1501016835.4,286046994.4,N
1501016855.2,286046994.2,N
1501016875.0,286046997.5,N
1501016875.9,286046997.5,N
1501016895.8,286047000.4,N
1501016915.6,286047001.0,N
1501016935.4,286047005.7,N
1501016955.3,286047009.0,N
1501016975.1,286047008.3,N
1501016976.0,286047008.3,N
1501016995.8,286047011.9,N
1501017015.6,286047009.0,N
1501017035.5,286047010.2,N
1501017055.3,286047008.5,N
1501017075.1,286047010.7,N
1501017095.9,286047005.0,N
1501017115.7,286047003.5,N
1501017135.5,286047004.8,N
1501017155.4,286047005.3,N
1501017175.2,286047005.9,N
1501017195.0,286047004.6,N
1501017195.9,286047004.6,N
1501017215.8,286047005.5,N
1501017235.6,286047005.0,N
1501017255.4,286047002.5,N
1501017275.2,286047000.0,N
1501017295.1,286046999.6,N
1501017296.0,286046999.6,N
1501017315.8,286047002.4,N
1501017335.6,286046998.2,N
1501017355.5,286047001.1,N
1501017375.3,286046999.9,N
1501017395.1,286047005.5,N
1501017415.9,286047001.7,N
1501017435.7,286047003.7,N
1501017455.5,286047005.1,N
1501017475.4,286047004.8,N
1501017495.2,286047005.6,N
1501017515.0,286047004.7,N
1501017515.9,286047004.7,N
1501017535.7,286047006.8,N
1501017555.6,286047007.5,N
1501017575.4,286047005.4,N
1501017595.2,286047006.7,N
1501017615.1,286047005.8,N
1501017616.0,286047005.8,N
1501017635.8,286047005.0,N
1501017655.6,286047003.6,N
1501017675.5,286047005.7,N
1501017695.3,286047008.4,N
1501017715.1,286047012.2,N
1501017735.9,286047009.5,N
1501017755.7,286047009.8,N
1501017775.5,286047011.7,N
1501017795.3,286047011.4,N
1501017815.2,286047006.5,N
1501017835.0,286047005.4,N
1501017835.9,286047005.4,N
1501017855.7,286047007.0,N
1501017875.6,286047008.4,N
1501017895.4,286047008.9,N
1501017915.2,286047005.0,N
1501017935.1,286047005.3,N
1501017936.0,286047005.3,N
1501017955.8,286047005.5,N
1501017975.6,286047007.5,N
1501017995.5,286047006.9,N
1501018015.3,286047005.9,N
1501018035.1,286047003.9,N
1501018055.8,286047003.4,N
1501018075.7,286047005.5,N
1501018095.5,286047004.7,N
1501018115.3,286047004.6,N
1501018135.2,286047005.7,N
1501018155.0,286047003.0,N
1501018155.9,286047003.0,N
1501018175.7,286047004.8,N
1501018195.6,286047004.6,N
1501018215.4,286047008.5,N
1501018235.2,286047004.6,N
1501018255.1,286047004.3,N
1501018256.0,286047004.3,N
1501018275.8,286047006.1,N
1501018295.6,286047006.9,N
1501018315.5,286047006.2,N
1501018335.3,286047005.8,N
1501018355.1,286047007.4,N
1501018375.9,286047006.1,N
1501018395.7,286047011.9,N
1501018415.5,286047012.0,N
1501018435.3,286047007.7,N
1501018455.2,286047010.8,N
1501018475.0,286047008.5,N
1501018475.9,286047008.5,N
1501018495.7,286047003.2,N
1501018515.6,286047002.9,N
1501018535.4,286047003.5,N
1501018555.2,286047001.3,N
1501018575.1,286047001.4,N
1501018576.0,286047001.4,N
1501018595.8,286047001.5,N
1501018615.6,286047002.9,N
1501018635.5,286047006.0,N
1501018655.3,286047003.6,N
1501018675.1,286046999.7,N
1501018695.9,286047004.3,N
1501018715.7,286047008.4,N
1501018735.5,286047010.7,N
1501018755.3,286047008.3,N
1501018775.2,286047001.3,N
1501018795.0,286047004.1,N
1501018795.9,286047004.1,N
1501018815.7,286047008.8,N
1501018835.6,286047009.8,N
1501018855.4,286047006.7,N
1501018875.2,286047008.7,N
1501018895.1,286047005.6,N
1501018896.0,286047005.6,N
1501018915.8,286047004.8,N
1501018935.6,286047007.4,N
1501018955.5,286047005.3,N
1501018975.3,286047004.7,N
1501018995.1,286047005.5,N
1501019015.9,286047001.6,N
1501019035.7,286047004.3,N
1501019055.5,286047003.0,N
1501019075.3,286047004.5,N
1501019095.2,286047004.7,N
1501019115.9,286047005.7,N
1501019135.7,286047003.7,N
1501019155.6,286047005.5,N
1501019175.4,286047005.7,N
1501019195.2,286047009.9,N
1501019215.1,286047013.9,N
1501019216.0,286047013.9,N
1501019235.8,286047009.4,N
1501019255.6,286047007.7,N
1501019275.5,286047008.9,N
1501019295.3,286047009.3,N
1501019315.1,286047012.2,N
1501019335.8,286047007.8,N
1501019355.7,286047007.6,N
1501019375.5,286047003.3,N
1501019395.3,286047000.2,N
1501019415.2,286047002.6,N
1501019435.9,286047000.5,N
1501019455.7,286046998.7,N
1501019475.6,286047000.6,N
1501019495.4,286047004.0,N
1501019515.2,286047006.0,N
1501019535.0,286047004.9,N
1501019536.0,286047004.9,N
1501019555.8,286047007.5,N
1501019575.6,286047010.0,N
1501019595.4,286047009.9,N
1501019615.3,286047012.1,N
1501019635.1,286047015.3,Y
1501019655.8,286047011.6,N
1501019675.7,286047011.2,N
1501019695.5,286047013.0,N
1501019715.3,286047011.1,N
1501019735.2,286047011.3,N
1501019755.9,286047010.4,N
1501019775.7,286047013.4,N
1501019795.6,286047013.8,Y
1501019815.4,286047010.2,N
1501019835.2,286047008.1,N
1501019855.1,286047011.8,N
1501019856.0,286047011.8,N
1501019875.8,286047008.9,N
1501019895.6,286047007.0,N
1501019915.5,286047006.3,N
1501019935.3,286047007.8,N
1501019955.1,286047008.4,N
1501019975.8,286047004.7,N
1501019995.7,286047005.2,N
